Location: London
(51.5074°N, 0.1278°W)
Time: 16:48:52
(UTC+01:00)

Envisat - Pass Details

Date: 04 October 2021
Orbit: 764 x 766 km, 98.2° (Epoch: 19 October)

Event Time Altitude Azimuth Distance (km) Brightness Sun altitude
Rises 06:00:01 0° 17° (NNE) 3,244 6.6 -11.1°
Reaches altitude 10° 06:02:23 10° 21° (NNE) 2,314 5.9 -10.8°
Maximum altitude 06:07:25 58° 101° (E) 895 3.7 -10.0°
Drops below altitude 10° 06:12:24 10° 180° (S) 2,296 5.4 -9.2°
Sets 06:14:44 0° 184° (S) 3,218 6.1 -8.8°
